[[{"header":{"parameterUnit":"m.s-1","parameterCategory":1,"la1":30.2991,"la2":30.254,"lo1":-89.0895,"lo2":-89.0444,"dy":0.0017,"dx":0.0017,"nx":28,"ny":28,"refTime":"2023-04-20T21:00:00:Z","depth":0,"parameterNumber":2,"parameterNumberName":"U-component_of_WINDS"},"data":[0,0,0,0,0,0,0,0,0,0,0,0,0,0,0,0,0,0,0,0,0,0,0,0,0,0,0,0,0,0,0,0,0,0,0,0,0,0,0,0,0,0,0,0,0,0,0,0,0,0,0,0,0,0,0,0,0,0,-2.9217,-2.9217,0,-2.9167,-2.9166,-2.9165,-2.9126,-2.9126,-2.9125,-2.9125,-2.9071,-2.907,-2.9069,0,0,0,0,0,0,0,0,0,0,0,0,0,-2.928,-2.9279,-2.9217,-2.9217,-2.9216,-2.9167,-2.9166,-2.9165,-2.9126,-2.9126,-2.9125,-2.9125,-2.9071,-2.907,-2.9069,0,0,0,0,0,0,0,0,0,0,0,0,0,-2.9244,-2.9279,-2.9218,-2.9191,-2.9188,-2.9167,-2.9166,-2.9165,-2.9126,-2.9126,-2.9125,-2.9125,-2.9072,-2.907,-2.9069,-2.907,0,0,-2.9064,-2.9063,0,0,0,0,0,0,0,0,-2.9246,-2.9241,-2.9195,-2.9193,-2.9189,-2.9152,-2.9168,-2.9133,-2.9126,-2.915,-2.9125,-2.9124,-2.9098,-2.9095,-2.9086,-2.9067,-2.9065,-2.9064,-2.9063,-2.9062,-2.9061,0,0,0,0,0,0,0,-2.9248,-2.9243,-2.9197,-2.9195,-2.9191,-2.9181,-2.9175,-2.9161,-2.9128,-2.9147,-2.9144,-2.9139,-2.9097,-2.9088,-2.9085,-2.9064,-2.9064,-2.9062,-2.9061,-2.906,-2.9045,-2.9045,0,0,0,0,0,0,-2.9255,-2.9246,-2.9199,-2.9196,-2.9217,-2.918,-2.9174,-2.9165,-2.9128,-2.9122,-2.914,-2.9137,-2.9091,-2.9087,-2.9083,-2.9082,-2.9062,-2.906,-2.9059,-2.9044,-2.9045,-2.9046,0,0,0,0,0,0,-2.9257,-2.9251,-2.9201,-2.922,-2.9213,-2.918,-2.917,-2.9164,-2.9155,-2.9122,-2.9115,-2.9137,-2.909,-2.9085,-2.9074,-2.9079,-2.906,-2.9058,-2.9044,-2.9045,-2.9045,-2.908,0,0,0,0,0,0,-2.9259,-2.9252,-2.9252,-2.922,-2.9212,-2.9193,-2.917,-2.9163,-2.9152,-2.9149,-2.9118,-2.9112,-2.9089,-2.9076,-2.9072,-2.9077,-2.9057,-2.9043,-2.9044,-2.9045,-2.9078,-2.9082,-2.9085,0,0,0,0,0,-2.9261,-2.9263,-2.9252,-2.9247,-2.9211,-2.9193,-2.9188,-2.9163,-2.9153,-2.9153,-2.9132,-2.9113,-2.908,-2.9075,-2.907,-2.9075,-2.9042,-2.9044,-2.9045,-2.9077,-2.9081,-2.9085,0,0,0,0,0,0,-2.9295,-2.9258,-2.9246,-2.9238,-2.9219,-2.9187,-2.9185,-2.9169,-2.9152,-2.9149,-2.9119,-2.9112,-2.9104,-2.9088,-2.9084,-2.9075,-2.9059,-2.9059,-2.9085,-2.9089,-2.9092,-2.9095,-2.9055,0,0,0,0,0,-2.9302,-2.9291,-2.9259,-2.9255,-2.9247,-2.9218,-2.9209,-2.9192,-2.9171,-2.9162,-2.914,-2.9121,-2.9106,-2.9097,-2.9081,-2.9077,-2.9069,-2.9077,-2.9081,-2.9084,-2.9084,-2.9081,-2.9084,-2.905,-2.905,-2.905,0,0,-2.9315,-2.9294,-2.9288,-2.9262,-2.9245,-2.9234,-2.9211,-2.92,-2.9192,-2.916,-2.9148,-2.9132,-2.9108,-2.9101,-2.9096,-2.9087,-2.9092,-2.9085,-2.9088,-2.9086,-2.9083,-2.9086,-2.9089,-2.9051,-2.9051,-2.905,0,0,-2.9334,-2.9317,-2.9312,-2.9296,-2.9272,-2.9254,-2.9253,-2.9223,-2.9212,-2.92,-2.9176,-2.9166,-2.9141,-2.9125,-2.9114,-2.913,-2.9112,-2.9126,-2.9143,-2.9141,-2.9144,-2.9146,-2.9152,-2.9154,-2.9127,-2.9127,-2.9127,0,-2.9353,-2.9336,-2.9311,-2.9302,-2.9291,-2.9264,-2.9259,-2.9245,-2.9217,-2.921,-2.9201,-2.9171,-2.9152,-2.9141,-2.9145,-2.9137,-2.9135,-2.9128,-2.9146,-2.9147,-2.9149,-2.9154,-2.9156,-2.9128,-2.9128,-2.9128,-2.9128,0,-2.9361,-2.935,-2.9349,-2.9324,-2.9313,-2.9306,-2.928,-2.9272,-2.9257,-2.9239,-2.9228,-2.9206,-2.9186,-2.9183,-2.9167,-2.917,-2.9165,-2.9151,-2.9135,-2.9155,-2.9159,-2.9161,-2.9131,-2.913,-2.913,-2.9129,0,0,-2.9397,-2.9361,-2.936,-2.9349,-2.9322,-2.9313,-2.9305,-2.9287,-2.9281,-2.9263,-2.9256,-2.9237,-2.9225,-2.9212,-2.9195,-2.9193,-2.9207,-2.9179,-2.9178,-2.9185,-2.9209,-2.9219,-2.9222,-2.9196,-2.9196,-2.9197,-2.9211,0,-2.9411,-2.9396,-2.9375,-2.9367,-2.9357,-2.9332,-2.9326,-2.9308,-2.9293,-2.9282,-2.9264,-2.9251,-2.9236,-2.9228,-2.9226,-2.9206,-2.9212,-2.9205,-2.9189,-2.9188,-2.9194,-2.9224,-2.9234,-2.9249,-2.9213,-2.9213,-2.9213,0,-2.9425,-2.941,-2.9401,-2.9376,-2.9371,-2.9366,-2.9348,-2.9338,-2.9318,-2.9307,-2.9294,-2.9276,-2.9267,-2.9254,-2.9241,-2.9237,-2.923,-2.922,-2.922,-2.9216,-2.9201,-2.922,-2.9253,-2.9255,-2.9216,-2.9215,-2.9215,0,-2.9452,-2.9429,-2.9422,-2.9413,-2.9384,-2.9381,-2.9368,-2.9348,-2.9339,-2.9324,-2.9318,-2.9302,-2.9292,-2.928,-2.9258,-2.9251,-2.9249,-2.9233,-2.9239,-2.9239,-2.9238,-2.9238,-2.9269,-2.9235,-2.9235,-2.9235,-2.9235,0,-2.9469,-2.9464,-2.9434,-2.9429,-2.9424,-2.94,-2.9395,-2.938,-2.9363,-2.9355,-2.9334,-2.9327,-2.9298,-2.9288,-2.9271,-2.9264,-2.926,-2.9251,-2.9246,-2.9252,-2.9253,-2.9245,-2.9243,-2.9236,-2.9236,-2.9235,-2.9235,0,-2.9497,-2.9476,-2.9466,-2.944,-2.9434,-2.9431,-2.9409,-2.9403,-2.9387,-2.9378,-2.9374,-2.9349,-2.9336,-2.9313,-2.9294,-2.9282,-2.9278,-2.9271,-2.9285,-2.9282,-2.9289,-2.9288,-2.9315,-2.9317,-2.9283,-2.9283,-2.9284,0,-2.9509,-2.9505,-2.9479,-2.9473,-2.9462,-2.9451,-2.9442,-2.9419,-2.9411,-2.939,-2.9387,-2.9373,-2.936,-2.9341,-2.9321,-2.9306,-2.9297,-2.9308,-2.9295,-2.9302,-2.9297,-2.9297,-2.9297,-2.931,-2.9311,-2.9311,-2.9312,0,-2.9532,-2.9522,-2.951,-2.9496,-2.9486,-2.9473,-2.9459,-2.9455,-2.9429,-2.9421,-2.9408,-2.9398,-2.9379,-2.9365,-2.9348,-2.9336,-2.9319,-2.9316,-2.9317,-2.9322,-2.933,-2.9326,-2.9292,-2.9315,-2.9315,-2.9315,-2.9314,-2.9314,-2.9551,-2.9547,-2.9529,-2.9517,-2.9505,-2.9493,-2.9487,-2.9471,-2.946,-2.9443,-2.943,-2.9419,-2.9401,-2.9376,-2.9365,-2.9356,-2.9348,-2.9349,-2.9349,-2.9349,-2.9351,-2.9333,-2.9352,-2.9352,-2.9352,-2.9352,-2.9352,0,-2.9573,-2.9561,-2.955,-2.9532,-2.9523,-2.951,-2.9494,-2.9487,-2.9477,-2.9463,-2.9451,-2.9437,-2.9424,-2.9404,-2.939,-2.9386,-2.9378,-2.9383,-2.9382,-2.938,-2.9359,-2.936,-2.939,-2.939,-2.939,-2.939,-2.939,-2.939,-2.9583,-2.9576,-2.9565,-2.9552,-2.9539,-2.9528,-2.952,-2.9509,-2.9497,-2.9483,-2.9472,-2.946,-2.9443,-2.9427,-2.9415,-2.941,-2.9405,-2.9412,-2.9404,-2.9385,-2.9381,-2.9378,-2.9378,-2.9412,-2.9412,-2.9426,-2.9426,-2.9426]},{"header":{"parameterUnit":"m.s-1","parameterCategory":1,"la1":30.2991,"la2":30.254,"lo1":-89.0895,"lo2":-89.0444,"dy":0.0017,"dx":0.0017,"nx":28,"ny":28,"refTime":"2023-04-20T21:00:00:Z","depth":0,"parameterNumber":3,"parameterNumberName":"V-component_of_WINDS"},"data":[0,0,0,0,0,0,0,0,0,0,0,0,0,0,0,0,0,0,0,0,0,0,0,0,0,0,0,0,0,0,0,0,0,0,0,0,0,0,0,0,0,0,0,0,0,0,0,0,0,0,0,0,0,0,0,0,0,0,2.7733,2.7732,0,2.7652,2.7651,2.765,2.7698,2.77,2.7703,2.7705,2.7619,2.7614,2.761,0,0,0,0,0,0,0,0,0,0,0,0,0,2.7925,2.7922,2.7733,2.7732,2.7731,2.7652,2.7651,2.765,2.7698,2.77,2.7703,2.7706,2.762,2.7615,2.7609,0,0,0,0,0,0,0,0,0,0,0,0,0,2.7843,2.792,2.7733,2.7745,2.7745,2.7653,2.7651,2.765,2.7697,2.77,2.7704,2.7707,2.7622,2.7615,2.7609,2.7499,0,0,2.7588,2.7585,0,0,0,0,0,0,0,0,2.7847,2.7836,2.7744,2.7744,2.7744,2.7689,2.7688,2.7599,2.7696,2.7715,2.7705,2.7709,2.7639,2.7631,2.7608,2.7495,2.7491,2.7588,2.7584,2.7581,2.7579,0,0,0,0,0,0,0,2.7853,2.7839,2.7701,2.7743,2.7743,2.7754,2.7746,2.7671,2.7658,2.7714,2.7717,2.7707,2.7639,2.7615,2.7607,2.749,2.7588,2.7582,2.7578,2.7575,2.7285,2.7281,0,0,0,0,0,0,2.7858,2.7844,2.7703,2.7698,2.7805,2.7748,2.7739,2.7703,2.7659,2.7656,2.7704,2.771,2.7624,2.7614,2.7604,2.7474,2.7581,2.7575,2.7571,2.7288,2.7284,2.728,0,0,0,0,0,0,2.7862,2.7845,2.7707,2.7772,2.7755,2.7741,2.77,2.77,2.7675,2.7652,2.765,2.7681,2.7627,2.7613,2.7525,2.7471,2.7572,2.7566,2.7293,2.7287,2.7282,2.7212,0,0,0,0,0,0,2.7868,2.7846,2.7805,2.7771,2.7752,2.763,2.7697,2.7695,2.7664,2.767,2.763,2.7627,2.7628,2.7535,2.7519,2.7464,2.756,2.7297,2.729,2.7283,2.7219,2.7205,2.7192,0,0,0,0,0,2.7874,2.7787,2.7802,2.7785,2.7699,2.7626,2.7615,2.762,2.7659,2.7617,2.7603,2.7628,2.748,2.7526,2.7508,2.745,2.7301,2.7292,2.7284,2.7225,2.7207,2.7193,0,0,0,0,0,0,2.7812,2.7782,2.7799,2.7698,2.7665,2.7635,2.7581,2.7601,2.7554,2.7562,2.7569,2.7559,2.7468,2.745,2.7502,2.7343,2.7397,2.7384,2.7358,2.7341,2.7328,2.7334,2.7555,0,0,0,0,0,2.7787,2.7731,2.7708,2.7621,2.7604,2.7595,2.7564,2.7571,2.7536,2.7521,2.7501,2.7465,2.7411,2.7375,2.7324,2.7217,2.721,2.7169,2.7156,2.7145,2.7134,2.7078,2.706,2.7252,2.7252,2.7252,0,0,2.7734,2.7711,2.7675,2.7608,2.7583,2.7525,2.7583,2.7518,2.7476,2.7511,2.7428,2.7412,2.7373,2.7276,2.7232,2.7258,2.708,2.7134,2.7126,2.712,2.7068,2.705,2.7034,2.7246,2.7247,2.7248,0,0,2.7608,2.7584,2.751,2.7485,2.7447,2.7443,2.7425,2.7393,2.7384,2.7301,2.7327,2.7276,2.7182,2.7154,2.7127,2.6994,2.7016,2.6977,2.6907,2.6853,2.6838,2.6825,2.6779,2.6762,2.6966,2.6966,2.6966,0,2.7546,2.746,2.7469,2.7404,2.7375,2.7407,2.7332,2.7307,2.7253,2.7232,2.7263,2.7148,2.7123,2.7021,2.6989,2.6966,2.6947,2.6981,2.684,2.6827,2.6814,2.677,2.6753,2.6962,2.6962,2.6963,2.6963,0,2.7387,2.7328,2.7273,2.7223,2.7188,2.7118,2.7116,2.7079,2.709,2.7082,2.6998,2.6971,2.6916,2.6892,2.69,2.6792,2.6809,2.6839,2.6894,2.6791,2.675,2.6733,2.6955,2.6957,2.6958,2.6959,0,0,2.7217,2.7177,2.7156,2.7135,2.7098,2.7052,2.6984,2.6932,2.6901,2.6863,2.6807,2.6729,2.6758,2.6727,2.6733,2.6686,2.6584,2.6722,2.6721,2.6699,2.6465,2.6443,2.6423,2.6599,2.6596,2.6593,2.6469,0,2.709,2.6974,2.6981,2.6871,2.6818,2.6849,2.679,2.6761,2.6752,2.6705,2.6696,2.6641,2.6682,2.6664,2.6619,2.6606,2.6538,2.6615,2.6547,2.6545,2.6556,2.6401,2.6377,2.6261,2.6452,2.645,2.6448,0,2.6925,2.6885,2.6771,2.6744,2.6722,2.6669,2.6624,2.6578,2.6546,2.6543,2.6511,2.6526,2.6458,2.6515,2.6422,2.6475,2.6448,2.6437,2.6433,2.6427,2.649,2.6392,2.6223,2.6206,2.6422,2.6424,2.6426,0,2.6815,2.6732,2.6654,2.6635,2.6601,2.6564,2.6548,2.6519,2.6488,2.6448,2.6429,2.638,2.6354,2.6316,2.6318,2.6359,2.6225,2.6281,2.6221,2.6221,2.6191,2.6193,2.6016,2.6172,2.6172,2.6173,2.6173,0,2.6672,2.6601,2.6604,2.6556,2.6478,2.6488,2.641,2.6398,2.6373,2.6323,2.6346,2.6299,2.6304,2.6256,2.6256,2.6181,2.6168,2.6164,2.6165,2.6162,2.6163,2.6145,2.6153,2.6168,2.6169,2.617,2.6171,0,2.6535,2.6534,2.6451,2.6427,2.642,2.6363,2.6343,2.6297,2.6292,2.6229,2.6215,2.6206,2.6152,2.615,2.6086,2.6087,2.5995,2.6004,2.6006,2.6008,2.5949,2.5955,2.5755,2.573,2.5901,2.59,2.5898,0,2.6444,2.6391,2.6362,2.6332,2.6314,2.6263,2.6233,2.6241,2.6209,2.617,2.6129,2.6077,2.6036,2.5947,2.5935,2.5887,2.5896,2.583,2.5889,2.5889,2.5897,2.59,2.5896,2.5818,2.5816,2.5814,2.5813,0,2.6283,2.6286,2.6243,2.6199,2.6163,2.6129,2.6097,2.607,2.6075,2.6037,2.5982,2.5951,2.5888,2.5836,2.579,2.5773,2.5794,2.5795,2.5779,2.5775,2.5779,2.5778,2.5975,2.5799,2.5801,2.5802,2.5802,2.5803,2.6167,2.6122,2.6096,2.6047,2.6025,2.5996,2.5953,2.5944,2.5899,2.5849,2.5857,2.5796,2.5768,2.5709,2.5688,2.5641,2.5664,2.564,2.5634,2.5629,2.5623,2.5787,2.5633,2.5633,2.5633,2.5634,2.5634,0,2.6009,2.5994,2.5949,2.5906,2.5868,2.5893,2.586,2.5826,2.5773,2.5745,2.5705,2.5644,2.5595,2.558,2.5533,2.5498,2.5506,2.5485,2.5488,2.5484,2.5604,2.5624,2.5479,2.5479,2.5479,2.5479,2.5479,2.5479,2.5922,2.5848,2.5849,2.5764,2.575,2.5693,2.5672,2.5646,2.5624,2.5555,2.5515,2.5507,2.5484,2.5436,2.5392,2.5389,2.5371,2.5346,2.5347,2.546,2.5475,2.549,2.5508,2.5342,2.5342,2.5231,2.523,2.5229]}]]